Weather Roundup
Issued by NWS Chicago, IL

Home | Current Version | Previous Version | Text Only | Print | Product List | Glossary Off
Versions: 1 2 3 4 5 6 7 8 9 10 11 12 13 14 15 16 17 18 19 20 21 22 23 24 25 26 27 28 29 30 31 32 33 34 35 36 37 38 39 40 41 42 43 44 45 46 47 48 49 50

000
NZUS59 KLOT 220721
HRRLOT

CHICAGO AREA WEATHER ROUNDUP
NATIONAL WEATHER SERVICE CHICAGO/ROMEOVILLE IL
200 AM CDT FRI MAY 22 2015

NOTE: "FAIR" INDICATES FEW OR NO CLOUDS BELOW 12,000 FEET WITH NO
SIGNIFICANT WEATHER AND/OR OBSTRUCTIONS TO VISIBILITY.

* THESE STATIONS ARE NOT UNDER NWS QUALITY CONTROL. THEY ALSO MAY NOT
  REPORT WEATHER SUCH AS PRECIPITATION OR FOG.

ILZ005-006-012>014-019>023-220800-
NORTHEAST ILLINOIS

CITY           SKY/WX    TMP DP  RH WIND       PRES   REMARKS
OHARE          PTCLDY    57  41  55 W8        30.02R
MIDWAY         PTCLDY    59  43  55 SW12      30.03S
AURORA         CLEAR     55  43  63 SW8       30.04R
LANSING*       CLEAR     55  40  57 SW7       30.04S
JOLIET*        CLEAR     58  45  63 SW6       30.04S
WAUKEGAN       CLEAR     48  40  73 VRB6      30.05R
DUPAGE AIRPORT CLEAR     53  42  66 SW9       30.02S
WHEELING       CLEAR     56  41  57 VRB6      30.06R
KANKAKEE*      CLEAR     53  44  71 SW9       30.07S
MORRIS*        CLEAR     56  45  64 W10       30.02R
LEWIS AIRPORT* CLEAR     55  43  62 W10       30.04S
NORTHERLY IS     N/A     59  40  49 SW3         N/A
$$

WIZ051-052-058>065-066-070>072-220800-
SOUTHEAST WISCONSIN

CITY           SKY/WX    TMP DP  RH WIND       PRES   REMARKS
MILWAUKEE      CLEAR     47  33  58 N8        30.08R
KENOSHA*       CLEAR     46  40  79 N7        30.06R
RACINE*        CLEAR     47  36  65 NE9       30.07R
BURLINGTON     CLEAR     46  35  67 N5        30.07R
WAUKESHA       CLEAR     45  32  61 NE5       30.09R
WEST BEND      CLEAR     41  34  75 CALM      30.08S
$$

INZ001>003-010>013-019-020-220800-
NORTHWEST INDIANA

CITY           SKY/WX    TMP DP  RH WIND       PRES   REMARKS
GARY*          PTCLDY    56  42  57 CALM      30.05S
MICHIGAN CITY* NOT AVBL
RENSSELAER*    NOT AVBL
VALPARAISO     PTCLDY    51  39  63 SW9       30.05S
$$

LMZ740>746-220800-
SOUTHERN LAKE MICHIGAN

STATION/POSITION TIME  SKY/WX   TEMP WIND        PRES    VSBY
                                AIR  DIR/SP/G
                 (UTC)          (F)  (DEG/KT/KT) (MB)    (MI)
HARRISON CRIB    0700            58   60/  3/  4   N/A
BURNHAM HARBOR   0700            59   CALM  /  8   N/A
CALUMET HARBOR   0600            60                N/A
BURNS HARBOR     0600            58  220/ 12/ 15 1017.6S
MICHIGAN CITY    0700            55  260/  4/  6   N/A
$$

ABBREVIATIONS USED IN REMARKS
   TC - TEMPERATURE IN CELSIUS
  WCI - WIND CHILL INDEX
   HX - HEAT INDEX
  VSB - VISIBILITY
$$


USA.gov is the U.S. government's official web portal to all federal, state and local government web resources and services.